Weather History for Fairmont, MN

Change the Weather History Date:

Monday, October 29, 2012

  Actual Average Record
Temperature  
Mean Temperature 40 °F -  
Max Temperature 51 °F 53 °F 77 °F (1950)
Min Temperature 30 °F 33 °F 22 °F (1972)
Degree Days  
Heating Degree Days 24    
Moisture  
Dew Point 25 °F    
Average Humidity 59    
Maximum Humidity 80    
Minimum Humidity 38    
Precipitation  
Precipitation 0.00 in - - ()
Sea Level Pressure  
Sea Level Pressure 30.22 in    
Wind  
Wind Speed 11 mph (SE)    
Max Wind Speed 20 mph    
Max Gust Speed 26 mph    
Visibility 10 miles    
Events      
Averages and records for this station are not official NWS values.
T = Trace of Precipitation, MM = Missing Value Source: NWS Daily Summary

Daily Weather History Graph

Daily Weather History Graph

Search for Another Location

Airport:

Trip Planner

Search our weather history database for the weather conditions in past years. The results will help you decide how hot, cold, wet, or windy it might be!

Date:

Astronomy

Oct. 29, 2012 Rise Set
Actual Time 7:50 AM CDT 6:11 PM CDT
Civil Twilight 7:20 AM CDT 6:41 PM CDT
Nautical Twilight 6:46 AM CDT 7:15 PM CDT
Astronomical Twilight 6:13 AM CDT 7:48 PM CDT
Moon 6:02 PM CDT (10/29) 7:42 AM CDT (10/29)
Length of Visible Light 11h 21m
Length of Day
10h 21m
Full, 100% of the Moon is Illuminated
Oct 29
Full
Oct 29
Full
Nov 6
Last Quarter
Nov 13
New
Nov 20
First Quarter

Hourly Weather History & Observations

Time (CDT) Temp. Windchill Dew Point Humidity Pressure Visibility Wind Dir Wind Speed Gust Speed Precip Events Conditions
12:15 AM 33.8 °F 27.0 °F 21.2 °F 60% 30.26 in 10.0 mi SSE 8.1 mph - N/A   Clear
12:35 AM 33.8 °F 27.0 °F 21.2 °F 60% 30.26 in 10.0 mi SE 8.1 mph - N/A   Clear
12:55 AM 32.0 °F 26.4 °F 21.2 °F 64% 30.26 in 10.0 mi SSE 5.8 mph - N/A   Clear
1:15 AM 30.2 °F 22.6 °F 21.2 °F 69% 30.26 in 10.0 mi SSE 8.1 mph - N/A   Clear
1:35 AM 30.2 °F 22.6 °F 21.2 °F 69% 30.26 in 10.0 mi SSE 8.1 mph - N/A   Partly Cloudy
1:55 AM 30.2 °F 22.6 °F 21.2 °F 69% 30.26 in 10.0 mi SSE 8.1 mph - N/A   Clear
2:15 AM 30.2 °F 23.4 °F 21.2 °F 69% 30.26 in 10.0 mi SSE 6.9 mph - N/A   Clear
2:35 AM 30.2 °F 22.6 °F 21.2 °F 69% 30.27 in 10.0 mi SSE 8.1 mph - N/A   Clear
2:55 AM 30.2 °F 24.3 °F 21.2 °F 69% 30.27 in 10.0 mi SSE 5.8 mph - N/A   Mostly Cloudy
3:15 AM 32.0 °F 24.8 °F 21.2 °F 64% 30.26 in 10.0 mi SSE 8.1 mph - N/A   Overcast
3:35 AM 32.0 °F 24.8 °F 21.2 °F 64% 30.25 in 10.0 mi SSE 8.1 mph - N/A   Mostly Cloudy
3:55 AM 32.0 °F 24.2 °F 21.2 °F 64% 30.25 in 10.0 mi SSE 9.2 mph - N/A   Scattered Clouds
4:15 AM 32.0 °F 23.6 °F 21.2 °F 64% 30.25 in 10.0 mi SSE 10.4 mph - N/A   Clear
4:55 AM 32.0 °F 23.6 °F 21.2 °F 64% 30.24 in 10.0 mi SSE 10.4 mph - N/A   Clear
5:55 AM 33.8 °F 25.3 °F 21.2 °F 60% 30.24 in 10.0 mi SSE 11.5 mph - N/A   Overcast
6:15 AM 35.6 °F 27.5 °F 21.2 °F 56% 30.23 in 10.0 mi SSE 11.5 mph - N/A   Overcast
6:35 AM 35.6 °F 28.0 °F 21.2 °F 56% 30.24 in 10.0 mi SSE 10.4 mph - N/A   Overcast
6:55 AM 35.6 °F 28.6 °F 21.2 °F 56% 30.25 in 10.0 mi SE 9.2 mph - N/A   Overcast
7:15 AM 35.6 °F 27.5 °F 23.0 °F 60% 30.24 in 10.0 mi SSE 11.5 mph - N/A   Overcast
7:35 AM 35.6 °F 27.5 °F 23.0 °F 60% 30.24 in 10.0 mi SSE 11.5 mph - N/A   Overcast
7:55 AM 35.6 °F 27.5 °F 23.0 °F 60% 30.25 in 10.0 mi SSE 11.5 mph - N/A   Overcast
8:15 AM 35.6 °F 27.1 °F 23.0 °F 60% 30.25 in 10.0 mi SSE 12.7 mph - N/A   Overcast
8:35 AM 35.6 °F 27.1 °F 23.0 °F 60% 30.25 in 10.0 mi SE 12.7 mph - N/A   Overcast
8:55 AM 35.6 °F 27.1 °F 24.8 °F 65% 30.26 in 10.0 mi SE 12.7 mph - N/A   Overcast
9:35 AM 37.4 °F 28.2 °F 24.8 °F 60% 30.25 in 10.0 mi SSE 16.1 mph - N/A   Overcast
9:55 AM 37.4 °F 28.5 °F 24.8 °F 60% 30.25 in 10.0 mi SE 15.0 mph - N/A   Overcast
10:15 AM 37.4 °F 29.3 °F 24.8 °F 60% 30.26 in 10.0 mi SE 12.7 mph - N/A   Overcast
10:35 AM 39.2 °F 30.8 °F 26.6 °F 61% 30.26 in 10.0 mi SE 15.0 mph - N/A   Overcast
10:55 AM 39.2 °F 30.5 °F 26.6 °F 61% 30.25 in 10.0 mi SE 16.1 mph - N/A   Overcast
11:15 AM 41.0 °F 32.8 °F 26.6 °F 57% 30.25 in 10.0 mi SSE 16.1 mph - N/A   Overcast
11:35 AM 42.8 °F 34.5 °F 26.6 °F 53% 30.25 in 10.0 mi SSE 18.4 mph - N/A   Overcast
11:55 AM 42.8 °F 34.8 °F 26.6 °F 53% 30.25 in 10.0 mi SSE 17.3 mph 20.7 mph N/A   Mostly Cloudy
12:35 PM 44.6 °F 37.2 °F 26.6 °F 49% 30.24 in 10.0 mi SSE 17.3 mph 26.5 mph N/A   Overcast
12:55 PM 46.4 °F 39.0 °F 26.6 °F 46% 30.23 in 10.0 mi South 19.6 mph - N/A   Overcast
1:15 PM 46.4 °F 39.2 °F 28.4 °F 50% 30.22 in 10.0 mi SSE 18.4 mph 24.2 mph N/A   Overcast
1:35 PM 48.2 °F - 26.6 °F 43% 30.22 in 10.0 mi SSE 17.3 mph - N/A   Overcast
1:55 PM 48.2 °F - 26.6 °F 43% 30.20 in 10.0 mi SSE 18.4 mph 23.0 mph N/A   Mostly Cloudy
2:15 PM 48.2 °F - 26.6 °F 43% 30.20 in 10.0 mi SSE 17.3 mph 24.2 mph N/A   Partly Cloudy
2:35 PM 48.2 °F - 26.6 °F 43% 30.20 in 10.0 mi SSE 17.3 mph 24.2 mph N/A   Clear
3:35 PM 51.8 °F - 26.6 °F 38% 30.19 in 10.0 mi SSE 18.4 mph 21.9 mph N/A   Mostly Cloudy
3:55 PM 50.0 °F - 26.6 °F 40% 30.18 in 10.0 mi SE 19.6 mph - N/A   Scattered Clouds
4:15 PM 50.0 °F - 26.6 °F 40% 30.19 in 10.0 mi SE 15.0 mph - N/A   Partly Cloudy
4:35 PM 50.0 °F - 26.6 °F 40% 30.19 in 10.0 mi SE 18.4 mph - N/A   Clear
4:55 PM 48.2 °F - 26.6 °F 43% 30.19 in 10.0 mi SE 17.3 mph - N/A   Clear
5:15 PM 48.2 °F - 26.6 °F 43% 30.19 in 10.0 mi SE 16.1 mph 20.7 mph N/A   Clear
5:35 PM 48.2 °F - 24.8 °F 40% 30.18 in 10.0 mi SE 16.1 mph - N/A   Clear
5:55 PM 46.4 °F 40.4 °F 24.8 °F 43% 30.18 in 10.0 mi SE 13.8 mph - N/A   Clear
6:15 PM 44.6 °F 38.8 °F 26.6 °F 49% 30.19 in 10.0 mi ESE 11.5 mph - N/A   Clear
6:35 PM 42.8 °F 36.6 °F 28.4 °F 57% 30.19 in 10.0 mi ESE 11.5 mph - N/A   Clear
6:55 PM 42.8 °F 36.6 °F 28.4 °F 57% 30.20 in 10.0 mi ESE 11.5 mph - N/A   Clear
7:15 PM 41.0 °F 34.3 °F 26.6 °F 57% 30.20 in 10.0 mi ESE 11.5 mph - N/A   Clear
7:35 PM 39.2 °F 32.5 °F 26.6 °F 61% 30.20 in 10.0 mi ESE 10.4 mph - N/A   Clear
7:55 PM 39.2 °F 32.5 °F 26.6 °F 61% 30.20 in 10.0 mi ESE 10.4 mph - N/A   Clear
8:15 PM 37.4 °F 30.3 °F 26.6 °F 65% 30.20 in 10.0 mi ESE 10.4 mph - N/A   Clear
8:35 PM 37.4 °F 30.8 °F 26.6 °F 65% 30.20 in 10.0 mi ESE 9.2 mph - N/A   Clear
8:55 PM 37.4 °F 30.8 °F 26.6 °F 65% 30.20 in 10.0 mi ESE 9.2 mph - N/A   Clear
9:15 PM 35.6 °F 28.6 °F 26.6 °F 70% 30.20 in 10.0 mi ESE 9.2 mph - N/A   Clear
9:35 PM 35.6 °F 29.2 °F 26.6 °F 70% 30.20 in 10.0 mi ESE 8.1 mph - N/A   Clear
9:55 PM 33.8 °F 27.7 °F 26.6 °F 75% 30.21 in 10.0 mi ESE 6.9 mph - N/A   Clear
10:15 PM 33.8 °F 27.7 °F 26.6 °F 75% 30.20 in 10.0 mi ESE 6.9 mph - N/A   Clear
10:35 PM 33.8 °F 26.4 °F 26.6 °F 75% 30.19 in 10.0 mi ESE 9.2 mph - N/A   Clear
10:55 PM 33.8 °F 27.7 °F 24.8 °F 70% 30.19 in 10.0 mi SE 6.9 mph - N/A   Clear
11:15 PM 33.8 °F 27.7 °F 24.8 °F 70% 30.19 in 10.0 mi SE 6.9 mph - N/A   Clear
11:35 PM 32.0 °F 26.4 °F 24.8 °F 75% 30.19 in 10.0 mi ESE 5.8 mph - N/A   Clear
11:55 PM 30.2 °F - 24.8 °F 80% 30.18 in 10.0 mi Calm Calm - N/A   Clear